Погода в Тасикмалая

Индонезия     7°21′34″S   108°13′26″E
темп.,
°C
ветер,
м/с
пор.,
м/с
влажн.,
%
обл.,
%
осадки,
мм/ч
давл.,
гПа
погр.,
м
2 марта, вт
вт201:00+22с019598 3.6 101127
04:00+22ссз1194100 0.8 100929
07:00+23ссз129299 0.8 101188
10:00+30св126244 0.1 10111071
13:00+30с126365 2.3 10091150
16:00+25вюв1288100 6.6 1008332
19:00+23всв1194100 9.6 101023
22:00+22ссз0193100 1.4 101223
3 марта, ср
ср301:00+21зсз119494 1.4 101023
04:00+21сз129390 0.0 100936
07:00+22сз128988 0.0 101087
10:00+30юв016052 0.2 10121011
13:00+29всв116357 2.8 10091130
16:00+26всв0180100 9.5 1007248
19:00+23вюв1192100 16.1 101023
22:00+22св1193100 4.1 101224
4 марта, чт
чт401:00+22ссз1293100 9.3 101141
04:00+21ссз2393100 2.1 101087
07:00+21ссз2392100 2.1 101289
10:00+28вюв016450 0.1 1012742
13:00+29вюв116875 2.9 1010948
16:00+25ю1284100 8.2 1008426
19:00+22вюв1193100 13.0 101125
22:00+21ссв009488 0.6 101223
5 марта, пт
пт501:00+21с119688 1.2 101123
04:00+21сз119498 0.6 101023
07:00+22сз019198 0.6 101138
10:00+27ююв226550 0.0 1012846
13:00+30ююв234937 0.1 10091640
16:00+28ююв336438 0.7 10071099
19:00+22юв119228 2.3 101024
22:00+22сз11956 0.1 101123
6 марта, сб
сб601:00+21ссз12956 0.1 101030
04:00+21зсз119426 0.1 100923
07:00+22ссз119036 0.8 101169
10:00+27в117847 6.5 1011463
13:00+27всв117774 16.0 1008604
16:00+24ююз1191100 9.9 1008130
19:00+22с1194100 16.1 101031
22:00+22ссв1194100 5.6 101228